| time (UTC) | temp F | wind direction | speed MPH | gust MPH | rain 1hr in | rain 24hr in | rain mn in | humidity % | barometer mb |
| 20260906011003 | 75 | 138 | 3.0 | 7.0 | 0.00 | 0.00 | 0.00 | 87 | 1011.4 |
| 20260906010003 | 75 | 111 | 4.0 | 9.0 | 0.00 | 0.00 | 0.00 | 86 | 1011.2 |
| 20260906005935 | 76 | 101 | 4.0 | 7.0 | 0.00 | 0.00 | 0.00 | 86 | 1011.2 |
| 20260906004605 | 76 | 132 | 3.0 | 8.0 | 0.00 | 0.00 | 0.00 | 85 | 1011.3 |
| 20260906003752 | 77 | 165 | 3.0 | 7.0 | 0.00 | 0.00 | 0.00 | 84 | 1011.1 |
| 20260906003003 | 77 | 117 | 4.0 | 6.0 | 0.00 | 0.00 | 0.00 | 84 | 1011.1 |
| 20260906002720 | 78 | 119 | 3.0 | 7.0 | 0.00 | 0.00 | 0.00 | 83 | 1011.1 |
| 20260906001648 | 78 | 109 | 4.0 | 7.0 | 0.00 | 0.00 | 0.00 | 83 | 1011.0 |
| 20260906001602 | 78 | 100 | 5.0 | 8.0 | 0.00 | 0.00 | 0.00 | 82 | 1011.0 |
| 20260906000629 | 78 | 99 | 3.0 | 7.0 | 0.00 | 0.00 | 0.00 | 83 | 1010.9 |
| 20260906000004 | 78 | 96 | 3.0 | 7.0 | 0.00 | 0.00 | 0.00 | 82 | 1010.9 |
| 20260905235631 | 79 | 117 | 3.0 | 7.0 | 0.00 | 0.00 | 0.00 | 82 | 1010.9 |
| 20260905234607 | 79 | 129 | 6.0 | 12.0 | 0.00 | 0.00 | 0.00 | 80 | 1010.8 |
| 20260905234601 | 79 | 110 | 6.0 | 11.0 | 0.00 | 0.00 | 0.00 | 80 | 1010.7 |
| 20260905233530 | 80 | 103 | 6.0 | 13.0 | 0.00 | 0.00 | 0.00 | 79 | 1010.8 |
| 20260905233001 | 80 | 70 | 7.0 | 14.0 | 0.00 | 0.00 | 0.00 | 78 | 1010.7 |
| 20260905231603 | 80 | 88 | 7.0 | 14.0 | 0.00 | 0.00 | 0.00 | 77 | 1010.7 |
| 20260905231307 | 81 | 108 | 8.0 | 15.0 | 0.00 | 0.00 | 0.00 | 76 | 1010.6 |
| 20260905230315 | 81 | 74 | 8.0 | 15.0 | 0.00 | 0.00 | 0.00 | 77 | 1010.4 |
| 20260905230004 | 80 | 89 | 9.0 | 13.0 | 0.00 | 0.00 | 0.00 | 77 | 1010.4 |
| 20260905225301 | 81 | 96 | 7.0 | 14.0 | 0.00 | 0.00 | 0.00 | 77 | 1010.3 |
| 20260905224610 | 80 | 87 | 8.0 | 15.0 | 0.00 | 0.00 | 0.00 | 77 | 1010.3 |
| 20260905224323 | 81 | 65 | 7.0 | 16.0 | 0.00 | 0.00 | 0.00 | 76 | 1010.2 |
| 20260905223323 | 81 | 55 | 8.0 | 16.0 | 0.00 | 0.00 | 0.00 | 78 | 1010.1 |
| 20260905223002 | 80 | 62 | 8.0 | 16.0 | 0.00 | 0.00 | 0.00 | 77 | 1010.1 |
| 20260905222252 | 81 | 63 | 9.0 | 17.0 | 0.00 | 0.00 | 0.00 | 77 | 1009.9 |
| 20260905221505 | 80 | 102 | 10.0 | 18.0 | 0.00 | 0.00 | 0.00 | 77 | 1009.8 |
| 20260905221308 | 81 | 65 | 9.0 | 17.0 | 0.00 | 0.00 | 0.00 | 77 | 1009.8 |
| 20260905220312 | 81 | 72 | 7.0 | 14.0 | 0.00 | 0.00 | 0.00 | 78 | 1009.9 |
| 20260905215301 | 81 | 110 | 6.0 | 14.0 | 0.00 | 0.00 | 0.00 | 79 | 1010.1 |
| 20260905214502 | 80 | 77 | 7.0 | 15.0 | 0.00 | 0.00 | 0.00 | 79 | 1010.4 |
| 20260905214252 | 80 | 101 | 7.0 | 14.0 | 0.00 | 0.00 | 0.00 | 80 | 1010.3 |
| 20260905213309 | 80 | 75 | 5.0 | 10.0 | 0.00 | 0.00 | 0.00 | 80 | 1010.4 |
| 20260905213110 | 80 | 80 | 5.0 | 11.0 | 0.00 | 0.00 | 0.00 | 80 | 1010.5 |
| 20260905212241 | 80 | 79 | 5.0 | 10.0 | 0.00 | 0.00 | 0.00 | 80 | 1010.5 |
| 20260905211508 | 80 | 79 | 4.0 | 10.0 | 0.00 | 0.00 | 0.00 | 80 | 1010.6 |
| 20260905211243 | 80 | 63 | 5.0 | 9.0 | 0.00 | 0.00 | 0.00 | 81 | 1010.5 |
| 20260905210229 | 80 | 82 | 5.0 | 10.0 | 0.00 | 0.00 | 0.00 | 80 | 1010.5 |
| 20260905210107 | 80 | 65 | 5.0 | 11.0 | 0.00 | 0.00 | 0.00 | 80 | 1010.5 |
| 20260905204504 | 80 | 102 | 7.0 | 14.0 | 0.00 | 0.00 | 0.00 | 79 | 1010.6 |
| 20260905204102 | 81 | 39 | 8.0 | 16.0 | 0.00 | 0.00 | 0.00 | 79 | 1010.6 |
| 20260905203126 | 80 | 73 | 10.0 | 16.0 | 0.00 | 0.00 | 0.00 | 79 | 1010.6 |
| 20260905203124 | 80 | 68 | 10.0 | 15.0 | 0.00 | 0.00 | 0.00 | 79 | 1010.6 |
| 20260905202136 | 80 | 76 | 9.0 | 18.0 | 0.00 | 0.00 | 0.00 | 80 | 1010.6 |
| 20260905201609 | 80 | 57 | 9.0 | 19.0 | 0.00 | 0.00 | 0.00 | 80 | 1010.8 |
| 20260905201125 | 80 | 56 | 11.0 | 18.0 | 0.00 | 0.00 | 0.00 | 79 | 1010.8 |
| 20260905200120 | 80 | 57 | 12.0 | 19.0 | 0.00 | 0.00 | 0.00 | 80 | 1011.1 |
| 20260905200118 | 80 | 24 | 10.0 | 18.0 | 0.00 | 0.00 | 0.00 | 80 | 1011.1 |
| 20260905194502 | 79 | 83 | 7.0 | 15.0 | 0.00 | 0.00 | 0.00 | 84 | 1011.6 |
| 20260905193923 | 80 | 103 | 9.0 | 15.0 | 0.00 | 0.00 | 0.00 | 84 | 1011.6 |
| 20260905193103 | 78 | 72 | 8.0 | 16.0 | 0.00 | 0.00 | 0.00 | 86 | 1011.6 |
| 20260905192924 | 79 | 79 | 8.0 | 16.0 | 0.00 | 0.00 | 0.00 | 86 | 1011.6 |
| 20260905191942 | 78 | 63 | 11.0 | 16.0 | 0.00 | 0.00 | 0.00 | 86 | 1011.5 |
| 20260905191502 | 78 | 71 | 13.0 | 17.0 | 0.00 | 0.00 | 0.00 | 85 | 1011.6 |
| 20260905190906 | 78 | 66 | 9.0 | 15.0 | 0.00 | 0.00 | 0.00 | 86 | 1011.7 |
| 20260905190106 | 77 | 76 | 8.0 | 12.0 | 0.00 | 0.00 | 0.00 | 88 | 1012.1 |
| 20260905184734 | 76 | 112 | 3.0 | 7.0 | 0.00 | 0.00 | 0.00 | 88 | 1012.4 |
| 20260905184504 | 76 | 78 | 4.0 | 8.0 | 0.00 | 0.00 | 0.00 | 88 | 1012.4 |
| 20260905183103 | 76 | 81 | 2.0 | 8.0 | 0.00 | 0.00 | 0.00 | 89 | 1012.5 |
| 20260905182551 | 76 | 97 | 3.0 | 7.0 | 0.00 | 0.00 | 0.00 | 88 | 1012.4 |
| 20260905181603 | 76 | 127 | 3.0 | 6.0 | 0.00 | 0.00 | 0.00 | 89 | 1012.6 |
| 20260905181503 | 75 | 92 | 4.0 | 7.0 | 0.00 | 0.00 | 0.00 | 89 | 1012.7 |
| 20260905180618 | 76 | 68 | 2.0 | 9.0 | 0.00 | 0.00 | 0.00 | 88 | 1012.6 |
| 20260905180105 | 75 | 152 | 3.0 | 8.0 | 0.00 | 0.00 | 0.00 | 90 | 1012.7 |
| 20260905175623 | 75 | 118 | 4.0 | 9.0 | 0.00 | 0.00 | 0.00 | 90 | 1012.7 |
| 20260905174639 | 74 | 110 | 5.0 | 8.0 | 0.00 | 0.00 | 0.00 | 90 | 1012.8 |
| 20260905174503 | 74 | 124 | 5.0 | 9.0 | 0.00 | 0.00 | 0.00 | 90 | 1012.9 |
| 20260905173616 | 74 | 97 | 4.0 | 10.0 | 0.00 | 0.00 | 0.00 | 90 | 1013.0 |
| 20260905173002 | 73 | 49 | 4.0 | 9.0 | 0.00 | 0.00 | 0.00 | 90 | 1013.2 |
| 20260905171603 | 73 | 106 | 5.0 | 10.0 | 0.00 | 0.00 | 0.00 | 91 | 1013.4 |
| 20260905171444 | 74 | 84 | 4.0 | 8.0 | 0.00 | 0.00 | 0.00 | 91 | 1013.4 |
| 20260905170437 | 73 | 136 | 4.0 | 8.0 | 0.00 | 0.00 | 0.00 | 90 | 1013.4 |
| 20260905170004 | 73 | 139 | 3.0 | 8.0 | 0.00 | 0.00 | 0.00 | 91 | 1013.5 |
| 20260905165431 | 73 | 100 | 4.0 | 7.0 | 0.00 | 0.00 | 0.00 | 91 | 1013.5 |
| 20260905164602 | 72 | 77 | 4.0 | 9.0 | 0.00 | 0.00 | 0.00 | 91 | 1013.5 |
| 20260905164401 | 73 | 96 | 4.0 | 8.0 | 0.00 | 0.00 | 0.00 | 92 | 1013.6 |
| 20260905163343 | 72 | 86 | 3.0 | 8.0 | 0.00 | 0.00 | 0.00 | 92 | 1013.5 |
| 20260905163002 | 72 | 113 | 3.0 | 7.0 | 0.00 | 0.00 | 0.00 | 93 | 1013.6 |
| 20260905162357 | 72 | 76 | 4.0 | 8.0 | 0.00 | 0.00 | 0.00 | 93 | 1013.4 |
| 20260905161602 | 71 | 99 | 6.0 | 9.0 | 0.00 | 0.00 | 0.00 | 93 | 1013.3 |
| 20260905161352 | 72 | 62 | 3.0 | 10.0 | 0.00 | 0.00 | 0.00 | 93 | 1013.3 |
| 20260905160406 | 72 | 104 | 4.0 | 10.0 | 0.00 | 0.00 | 0.00 | 94 | 1013.0 |
| 20260905160002 | 71 | 74 | 6.0 | 11.0 | 0.00 | 0.00 | 0.00 | 94 | 1013.1 |
| 20260905155414 | 71 | 71 | 5.0 | 7.0 | 0.00 | 0.00 | 0.00 | 94 | 1013.1 |
| 20260905154611 | 70 | 118 | 6.0 | 8.0 | 0.00 | 0.00 | 0.00 | 97 | 1013.0 |
| 20260905154358 | 70 | 68 | 3.0 | 6.0 | 0.00 | 0.00 | 0.00 | 98 | 1013.0 |
| 20260905153351 | 70 | 71 | 2.0 | 6.0 | 0.00 | 0.00 | 0.00 | 98 | 1013.0 |
| 20260905153003 | 69 | 77 | 2.0 | 5.0 | 0.00 | 0.00 | 0.00 | 98 | 1013.1 |
| 20260905152319 | 69 | 74 | 0.0 | 4.0 | 0.00 | 0.00 | 0.00 | 98 | 1013.0 |
| 20260905151617 | 69 | 86 | 0.0 | 2.0 | 0.00 | 0.00 | 0.00 | 99 | 1013.2 |
| 20260905151305 | 69 | 86 | 0.0 | 2.0 | 0.00 | 0.00 | 0.00 | 99 | 1013.1 |
| 20260905150238 | 69 | 85 | 1.0 | 6.0 | 0.00 | 0.00 | 0.00 | 99 | 1013.1 |
| 20260905150002 | 69 | 85 | 0.0 | 7.0 | 0.00 | 0.00 | 0.00 | 99 | 1013.0 |
| 20260905145237 | 69 | 74 | 3.0 | 7.0 | 0.00 | 0.00 | 0.00 | 99 | 1012.5 |
| 20260905144603 | 68 | 96 | 3.0 | 8.0 | 0.00 | 0.00 | 0.00 | 99 | 1012.5 |
| 20260905144218 | 69 | 87 | 4.0 | 8.0 | 0.00 | 0.00 | 0.00 | 99 | 1012.4 |
| 20260905143210 | 68 | 74 | 4.0 | 8.0 | 0.00 | 0.00 | 0.00 | 99 | 1012.4 |
| 20260905143003 | 68 | 75 | 4.0 | 9.0 | 0.00 | 0.00 | 0.00 | 99 | 1012.6 |
| 20260905142203 | 68 | 88 | 4.0 | 8.0 | 0.00 | 0.00 | 0.00 | 99 | 1012.5 |
| 20260905141604 | 68 | 75 | 5.0 | 9.0 | 0.00 | 0.00 | 0.00 | 99 | 1012.3 |
| 20260905141222 | 68 | 82 | 5.0 | 8.0 | 0.00 | 0.00 | 0.00 | 99 | 1012.3 |
| 20260905140221 | 68 | 70 | 2.0 | 7.0 | 0.00 | 0.00 | 0.00 | 99 | 1012.4 |
| 20260905140002 | 68 | 69 | 4.0 | 7.0 | 0.00 | 0.00 | 0.00 | 99 | 1012.5 |
| 20260905135205 | 68 | 83 | 2.0 | 6.0 | 0.00 | 0.00 | 0.00 | 99 | 1012.5 |
| 20260905134605 | 67 | 74 | 1.0 | 4.0 | 0.00 | 0.00 | 0.00 | 99 | 1012.6 |
| 20260905134141 | 68 | 76 | 1.0 | 2.0 | 0.00 | 0.00 | 0.00 | 99 | 1012.5 |
| 20260905133119 | 68 | 69 | 0.0 | 2.0 | 0.00 | 0.00 | 0.00 | 99 | 1012.4 |
| 20260905133004 | 67 | 70 | 1.0 | 3.0 | 0.00 | 0.00 | 0.00 | 99 | 1012.4 |
| 20260905132119 | 68 | 79 | 1.0 | 3.0 | 0.00 | 0.00 | 0.00 | 99 | 1012.3 |
| 20260905131607 | 67 | 79 | 2.0 | 4.0 | 0.00 | 0.00 | 0.00 | 99 | 1012.3 |
| 20260905130002 | 67 | 70 | 0.0 | 3.0 | 0.00 | 0.00 | 0.00 | 99 | 1012.4 |
| 20260905124851 | 67 | 72 | 0.0 | 3.0 | 0.00 | 0.00 | 0.00 | 99 | 1011.8 |
| 20260905124602 | 67 | 72 | 0.0 | 4.0 | 0.00 | 0.00 | 0.00 | 99 | 1011.7 |
| 20260905123005 | 66 | 62 | 2.0 | 7.0 | 0.00 | 0.00 | 0.00 | 98 | 1011.1 |
| 20260905122644 | 67 | 88 | 3.0 | 6.0 | 0.00 | 0.00 | 0.00 | 98 | 1011.0 |
| 20260905121704 | 67 | 63 | 2.0 | 6.0 | 0.00 | 0.00 | 0.00 | 98 | 1011.0 |
| 20260905121602 | 66 | 68 | 4.0 | 7.0 | 0.00 | 0.00 | 0.00 | 98 | 1011.1 |
| 20260905120641 | 67 | 82 | 1.0 | 5.0 | 0.00 | 0.00 | 0.00 | 98 | 1011.1 |
| 20260905120003 | 66 | 67 | 2.0 | 6.0 | 0.00 | 0.00 | 0.00 | 98 | 1011.4 |
| 20260905115641 | 67 | 84 | 1.0 | 5.0 | 0.00 | 0.00 | 0.00 | 98 | 1011.4 |
| 20260905114651 | 67 | 84 | 2.0 | 8.0 | 0.00 | 0.00 | 0.00 | 98 | 1011.3 |
| 20260905114602 | 66 | 68 | 3.0 | 6.0 | 0.00 | 0.00 | 0.00 | 98 | 1011.3 |
| 20260905113707 | 67 | 88 | 4.0 | 8.0 | 0.00 | 0.00 | 0.00 | 98 | 1011.2 |
| 20260905113002 | 66 | 75 | 3.0 | 7.0 | 0.00 | 0.00 | 0.00 | 98 | 1011.1 |
| 20260905112720 | 66 | 84 | 4.0 | 7.0 | 0.00 | 0.00 | 0.00 | 98 | 1011.0 |
| 20260905111714 | 66 | 76 | 5.0 | 7.0 | 0.00 | 0.00 | 0.00 | 98 | 1010.9 |
| 20260905111604 | 66 | 68 | 5.0 | 8.0 | 0.00 | 0.00 | 0.00 | 98 | 1010.9 |
| 20260905110643 | 66 | 79 | 4.0 | 8.0 | 0.00 | 0.00 | 0.00 | 98 | 1010.8 |
| 20260905110003 | 66 | 87 | 4.0 | 9.0 | 0.00 | 0.00 | 0.00 | 98 | 1011.1 |
| 20260905104602 | 66 | 74 | 3.0 | 9.0 | 0.00 | 0.00 | 0.00 | 98 | 1011.1 |
| 20260905104518 | 67 | 72 | 4.0 | 8.0 | 0.00 | 0.00 | 0.00 | 98 | 1011.0 |
| 20260905103003 | 66 | 82 | 4.0 | 11.0 | 0.00 | 0.00 | 0.00 | 98 | 1010.8 |
| 20260905102344 | 67 | 53 | 5.0 | 10.0 | 0.00 | 0.00 | 0.00 | 98 | 1010.7 |
| 20260905101610 | 66 | 72 | 5.0 | 9.0 | 0.00 | 0.00 | 0.00 | 97 | 1010.7 |
| 20260905101334 | 67 | 83 | 4.0 | 9.0 | 0.00 | 0.00 | 0.00 | 97 | 1010.7 |
| 20260905100328 | 67 | 70 | 6.0 | 9.0 | 0.00 | 0.00 | 0.00 | 97 | 1010.5 |
| 20260905095252 | 67 | 77 | 4.0 | 8.0 | 0.00 | 0.00 | 0.00 | 97 | 1010.6 |
| 20260905094502 | 66 | 80 | 4.0 | 9.0 | 0.00 | 0.00 | 0.00 | 97 | 1010.4 |
| 20260905093126 | 66 | 58 | 5.0 | 10.0 | 0.00 | 0.00 | 0.00 | 97 | 1009.9 |
| 20260905093117 | 66 | 66 | 4.0 | 10.0 | 0.00 | 0.00 | 0.00 | 97 | 1009.9 |
| 20260905092115 | 66 | 40 | 4.0 | 10.0 | 0.00 | 0.00 | 0.00 | 96 | 1009.8 |
| 20260905091504 | 66 | 96 | 4.0 | 11.0 | 0.00 | 0.00 | 0.00 | 96 | 1010.0 |
| 20260905091046 | 66 | 93 | 3.0 | 8.0 | 0.00 | 0.00 | 0.00 | 96 | 1010.0 |
| 20260905090103 | 66 | 68 | 1.0 | 7.0 | 0.00 | 0.00 | 0.00 | 96 | 1010.3 |
| 20260905090034 | 66 | 56 | 2.0 | 6.0 | 0.00 | 0.00 | 0.00 | 96 | 1010.2 |
| 20260905085048 | 66 | 67 | 0.0 | 5.0 | 0.00 | 0.00 | 0.00 | 95 | 1010.3 |
| 20260905084502 | 66 | 77 | 2.0 | 6.0 | 0.00 | 0.00 | 0.00 | 95 | 1010.5 |
| 20260905084024 | 66 | 73 | 2.0 | 6.0 | 0.00 | 0.00 | 0.00 | 95 | 1010.4 |
| 20260905083111 | 66 | 56 | 3.0 | 7.0 | 0.00 | 0.00 | 0.00 | 94 | 1010.4 |
| 20260905081906 | 66 | 65 | 4.0 | 7.0 | 0.00 | 0.00 | 0.00 | 94 | 1010.3 |
| 20260905081502 | 66 | 58 | 5.0 | 8.0 | 0.00 | 0.00 | 0.00 | 94 | 1010.3 |
| 20260905080830 | 67 | 77 | 2.0 | 7.0 | 0.00 | 0.00 | 0.00 | 94 | 1010.3 |
| 20260905080109 | 66 | 75 | 1.0 | 8.0 | 0.00 | 0.00 | 0.00 | 94 | 1010.5 |
| 20260905075837 | 67 | 76 | 3.0 | 7.0 | 0.00 | 0.00 | 0.00 | 94 | 1010.4 |
| 20260905074855 | 67 | 74 | 2.0 | 5.0 | 0.00 | 0.00 | 0.00 | 94 | 1010.5 |
| 20260905074502 | 66 | 69 | 3.0 | 5.0 | 0.00 | 0.00 | 0.00 | 94 | 1010.6 |
| 20260905073825 | 67 | 77 | 0.0 | 2.0 | 0.00 | 0.00 | 0.00 | 94 | 1010.6 |
| 20260905073102 | 67 | 71 | 1.0 | 5.0 | 0.00 | 0.00 | 0.00 | 94 | 1010.6 |
| 20260905071719 | 67 | 74 | 3.0 | 5.0 | 0.00 | 0.00 | 0.00 | 94 | 1010.5 |
| 20260905071508 | 67 | 64 | 3.0 | 6.0 | 0.00 | 0.00 | 0.00 | 94 | 1010.5 |
| 20260905070116 | 67 | 65 | 1.0 | 3.0 | 0.00 | 0.00 | 0.00 | 93 | 1010.6 |
| 20260905064503 | 67 | 27 | 0.0 | 4.0 | 0.00 | 0.00 | 0.00 | 93 | 1010.6 |
| 20260905064411 | 68 | 41 | 0.0 | 3.0 | 0.00 | 0.00 | 0.00 | 93 | 1010.6 |
| 20260905063357 | 68 | 65 | 0.0 | 2.0 | 0.00 | 0.00 | 0.00 | 93 | 1010.5 |
| 20260905063102 | 67 | 68 | 0.0 | 2.0 | 0.00 | 0.00 | 0.00 | 93 | 1010.5 |
| 20260905062339 | 68 | 68 | 0.0 | 1.0 | 0.00 | 0.00 | 0.00 | 93 | 1010.4 |
| 20260905061610 | 68 | 68 | 0.0 | 3.0 | 0.00 | 0.00 | 0.00 | 93 | 1010.5 |
| 20260905061304 | 69 | 68 | 0.0 | 2.0 | 0.00 | 0.00 | 0.00 | 93 | 1010.4 |
| 20260905060231 | 69 | 81 | 0.0 | 0.0 | 0.00 | 0.00 | 0.00 | 92 | 1010.4 |
| 20260905060003 | 69 | 81 | 0.0 | 1.0 | 0.00 | 0.00 | 0.00 | 92 | 1010.4 |
| 20260905055248 | 69 | 81 | 0.0 | 0.0 | 0.00 | 0.00 | 0.00 | 92 | 1010.4 |
| 20260905054606 | 69 | 81 | 0.0 | 6.0 | 0.00 | 0.00 | 0.00 | 92 | 1010.2 |
| 20260905054305 | 70 | 50 | 1.0 | 5.0 | 0.00 | 0.00 | 0.00 | 91 | 1010.1 |
| 20260905053321 | 70 | 53 | 1.0 | 4.0 | 0.00 | 0.00 | 0.00 | 91 | 1010.2 |
| 20260905053001 | 69 | 73 | 2.0 | 4.0 | 0.00 | 0.00 | 0.00 | 91 | 1010.2 |
| 20260905052247 | 70 | 68 | 0.0 | 3.0 | 0.00 | 0.00 | 0.00 | 91 | 1010.1 |
| 20260905051602 | 70 | 69 | 0.0 | 4.0 | 0.00 | 0.00 | 0.00 | 91 | 1010.2 |
| 20260905051249 | 70 | 353 | 0.0 | 3.0 | 0.00 | 0.00 | 0.00 | 91 | 1010.1 |
| 20260905050003 | 70 | 74 | 1.0 | 4.0 | 0.00 | 0.00 | 0.00 | 90 | 1010.0 |
| 20260905045133 | 71 | 58 | 4.0 | 7.0 | 0.00 | 0.00 | 0.00 | 90 | 1009.9 |
| 20260905044616 | 71 | 67 | 6.0 | 8.0 | 0.00 | 0.00 | 0.00 | 90 | 1009.8 |
| 20260905043003 | 71 | 65 | 1.0 | 5.0 | 0.00 | 0.00 | 0.00 | 89 | 1010.0 |
| 20260905041830 | 72 | 58 | 1.0 | 4.0 | 0.00 | 0.00 | 0.00 | 89 | 1009.8 |
| 20260905041609 | 71 | 53 | 2.0 | 5.0 | 0.00 | 0.00 | 0.00 | 89 | 1009.9 |
| 20260905040836 | 72 | 74 | 3.0 | 7.0 | 0.00 | 0.00 | 0.00 | 88 | 1009.8 |
| 20260905040003 | 72 | 64 | 3.0 | 8.0 | 0.00 | 0.00 | 0.00 | 88 | 1010.0 |
| 20260905035848 | 73 | 79 | 4.0 | 7.0 | 0.00 | 0.00 | 0.00 | 88 | 1009.9 |
| 20260905034833 | 73 | 73 | 4.0 | 7.0 | 0.00 | 0.00 | 0.00 | 88 | 1009.8 |
| 20260905034503 | 72 | 68 | 4.0 | 8.0 | 0.00 | 0.00 | 0.00 | 87 | 1009.9 |
| 20260905033833 | 73 | 68 | 5.0 | 7.0 | 0.00 | 0.00 | 0.00 | 87 | 1009.9 |
| 20260905033106 | 73 | 77 | 5.0 | 8.0 | 0.00 | 0.00 | 0.00 | 87 | 1009.9 |
| 20260905032831 | 74 | 70 | 3.0 | 7.0 | 0.00 | 0.00 | 0.00 | 87 | 1009.9 |
| 20260905031819 | 73 | 51 | 1.0 | 5.0 | 0.00 | 0.00 | 0.00 | 88 | 1009.9 |
| 20260905031502 | 73 | 60 | 1.0 | 6.0 | 0.00 | 0.00 | 0.00 | 88 | 1009.9 |
| 20260905030105 | 74 | 74 | 1.0 | 4.0 | 0.00 | 0.00 | 0.00 | 86 | 1009.6 |
| 20260905025724 | 75 | 65 | 1.0 | 3.0 | 0.00 | 0.00 | 0.00 | 86 | 1009.5 |
| 20260905024503 | 74 | 75 | 2.0 | 3.0 | 0.00 | 0.00 | 0.00 | 86 | 1009.4 |
| 20260905023519 | 75 | 86 | 1.0 | 2.0 | 0.00 | 0.00 | 0.00 | 86 | 1009.2 |
| 20260905023103 | 75 | 86 | 2.0 | 3.0 | 0.00 | 0.00 | 0.00 | 87 | 1009.1 |
| 20260905021505 | 75 | 81 | 1.0 | 3.0 | 0.00 | 0.00 | 0.00 | 86 | 1008.9 |
| 20260905021352 | 75 | 78 | 0.0 | 2.0 | 0.00 | 0.00 | 0.00 | 86 | 1008.8 |
| 20260905020331 | 76 | 70 | 0.0 | 2.0 | 0.00 | 0.00 | 0.00 | 85 | 1008.8 |
| 20260905015309 | 76 | 52 | 0.0 | 0.0 | 0.00 | 0.00 | 0.00 | 85 | 1008.6 |
| 20260905014502 | 76 | 65 | 0.0 | 2.0 | 0.00 | 0.00 | 0.00 | 85 | 1008.6 |
| 20260905014332 | 76 | 65 | 0.0 | 1.0 | 0.00 | 0.00 | 0.00 | 85 | 1008.5 |
| 20260905013259 | 77 | 50 | 0.0 | 0.0 | 0.00 | 0.00 | 0.00 | 83 | 1008.4 |
| 20260905013103 | 77 | 50 | 0.0 | 3.0 | 0.00 | 0.00 | 0.00 | 83 | 1008.5 |
| 20260905012300 | 78 | 41 | 0.0 | 3.0 | 0.00 | 0.00 | 0.00 | 82 | 1008.3 |